Lapse_Rate
2.8 2.6 2.1 1.2 1.0 0.9 1.3 7.0 6.6 5.2 4.4 6.8 7.0 6.5 6.5 6.3 6.8 7.3 6.7 6.6 6.5 6.5 6.5 6.5 6.5 6.5 6.5 7.1 6.9 6.5 6.5 6.5 6.5 6.5 6.5 6.5 6.5 6.5 6.5 6.5 6.5 6.5 6.5 6.5
2.7 2.3 1.8 1.3 0.7 0.4 3.7 7.7 7.6 5.5 4.3 6.5 6.5 6.7 6.5 6.9 6.5 6.5 6.5 6.5 6.5 6.5 6.5 6.5 6.5 6.5 6.9 7.2 6.6 6.5 6.5 6.5 6.5 6.5 6.5 6.5 6.5 6.5 6.5 6.5 6.5 6.5 6.5 6.5
2.1 2.2 1.8 1.2 0.9 0.6 4.5 7.9 6.5 7.6 8.0 7.7 6.6 6.5 6.5 6.5 7.2 6.8 6.9 6.6 6.7 6.5 6.5 6.5 6.5 6.5 6.6 7.1 6.9 6.2 6.8 6.5 6.5 6.5 6.5 6.5 6.5 6.5 6.5 6.5 6.5 6.5 6.5 6.5
2.0 1.6 1.6 1.3 0.6 0.6 4.3 7.0 7.0 6.4 6.5 6.7 6.7 6.6 6.5 6.5 6.5 6.9 7.1 6.5 6.5 6.5 6.5 6.5 6.5 6.5 6.5 6.8 6.7 6.9 6.5 6.5 6.5 6.5 6.5 6.5 6.5 6.5 6.5 6.5 6.5 6.5 6.5 6.5
1.9 1.6 1.2 1.2 0.7 1.4 5.8 7.5 7.2 7.6 7.1 7.2 6.6 6.5 6.5 6.5 6.5 6.5 6.5 6.5 6.5 6.5 6.5 6.5 6.5 6.5 6.5 6.5 6.7 6.5 6.6 6.5 6.5 6.5 6.5 6.5 6.5 6.5 6.5 6.5 6.5 6.5 6.5 6.5
1.6 1.6 1.4 1.2 1.0 2.8 7.1 5.3 5.9 7.6 5.8 6.7 6.5 6.5 6.5 6.5 6.7 6.9 7.1 6.7 6.5 6.5 6.6 7.1 7.3 7.4 7.2 6.8 6.5 6.5 6.5 6.5 6.5 6.5 6.5 6.5 6.5 6.5 6.5 6.5 6.5 6.5 6.5 6.5
1.7 1.5 1.5 1.8 1.7 1.7 5.9 4.9 6.5 7.4 6.5 6.5 6.5 6.6 6.8 6.5 6.7 6.5 7.0 7.3 6.6 7.2 7.3 7.8 7.7 7.5 7.2 7.1 6.8 7.0 6.5 6.5 6.5 6.5 6.5 6.5 6.5 6.5 6.5 6.5 6.5 6.5 6.5 6.5
1.8 1.8 1.6 1.7 2.0 2.2 5.1 4.3 6.5 7.7 6.5 6.9 6.8 6.8 6.7 7.0 7.2 6.9 6.9 7.4 7.8 8.0 7.5 6.5 6.5 6.5 6.5 6.5 6.5 6.5 6.7 6.5 6.5 6.5 6.5 6.5 6.5 6.5 6.5 6.5 6.5 6.5 6.5 6.5
2.4 2.1 1.9 1.8 1.8 1.9 5.1 4.1 3.6 7.6 7.1 6.6 7.4 6.9 7.1 6.5 6.5 6.6 7.0 7.8 7.8 7.7 6.7 6.5 6.5 6.5 6.5 6.5 6.5 6.6 6.5 6.5 6.5 6.5 6.5 6.5 6.5 6.5 7.0 6.6 6.5 6.5 6.7 6.5
3.0 2.3 2.3 2.0 1.9 1.9 3.4 4.7 3.0 6.7 7.3 7.8 7.7 6.9 6.7 7.5 7.0 6.5 7.0 7.2 7.2 7.8 6.5 6.5 6.5 6.5 6.5 6.5 6.5 6.5 6.5 6.5 6.5 6.5 6.5 6.5 6.5 6.7 7.1 6.5 6.5 6.8 7.0 6.9
3.5 2.7 2.5 2.8 2.8 2.2 3.2 4.4 3.3 5.5 7.8 7.9 6.1 6.9 7.4 7.2 7.2 6.5 7.1 6.9 6.9 6.7 6.5 6.5 6.5 6.5 6.5 6.5 6.5 6.5 6.5 6.5 6.5 6.5 6.5 6.5 6.8 6.7 6.5 6.6 7.1 7.2 7.2 7.3
3.8 3.1 2.5 2.9 3.4 4.1 3.2 6.0 3.4 4.0 6.2 7.4 4.8 6.3 6.2 7.1 7.7 7.6 7.6 7.1 7.0 7.1 6.5 6.5 6.5 6.5 6.5 6.5 6.5 6.5 6.5 6.5 6.5 6.5 6.5 6.6 7.2 6.9 7.4 7.5 7.2 7.3 7.4 7.6
3.9 3.5 2.9 3.0 3.5 3.9 3.7 5.0 4.2 4.7 6.4 6.9 6.1 6.5 5.8 4.4 4.6 6.5 7.3 7.6 7.8 7.4 7.3 6.9 6.5 6.5 6.5 6.5 6.5 6.5 6.5 6.8 6.5 6.5 6.5 6.6 7.1 7.5 7.6 7.7 7.6 7.8 7.9 7.8
3.9 3.9 3.7 3.6 3.5 3.8 3.8 4.5 4.2 5.7 6.5 7.0 6.8 3.6 4.3 3.5 3.6 4.9 6.6 7.1 6.0 6.8 7.1 7.0 6.5 6.5 6.9 6.5 6.5 6.5 6.6 6.6 6.5 6.5 6.5 7.0 7.3 7.6 7.8 7.8 7.7 7.6 7.8 8.0
5.2 4.6 4.8 4.4 4.1 4.5 4.3 3.5 3.1 4.5 6.2 6.9 6.8 5.8 4.0 4.1 4.6 4.6 5.4 7.1 8.0 7.7 7.0 6.6 6.5 6.9 6.7 6.7 6.5 6.5 6.9 6.5 6.5 6.5 6.8 6.9 6.9 7.5 6.9 7.6 7.5 7.8 7.7 7.1
4.9 4.9 4.7 4.5 4.2 4.3 5.7 5.6 3.3 2.8 5.3 6.3 6.5 5.6 5.1 5.0 5.2 6.3 6.1 6.6 8.0 7.8 7.2 6.8 7.1 7.0 6.9 6.5 6.5 6.6 7.2 7.5 7.7 6.9 7.6 7.4 7.6 7.0 8.0 7.5 7.7 8.0 6.9 6.7
6.1 5.6 4.8 4.5 4.3 4.6 6.0 5.9 5.1 3.2 3.8 6.1 6.7 6.7 5.2 5.8 6.1 6.6 6.8 6.6 7.9 7.2 7.1 6.9 6.9 7.0 6.8 6.5 6.5 6.6 7.2 7.5 7.6 7.9 7.7 7.1 7.3 7.3 7.5 7.5 6.7 6.5 5.9 5.8
6.1 6.1 5.1 4.3 4.8 4.6 5.3 5.4 3.5 4.4 5.3 3.8 6.5 6.5 6.4 6.9 7.4 7.2 7.8 7.5 7.6 7.5 7.2 7.1 6.8 6.9 6.9 6.5 6.6 7.1 7.4 7.1 7.2 7.6 7.7 7.1 7.0 5.2 5.6 6.1 6.3 5.8 5.9 6.5
7.0 5.9 4.1 4.0 4.7 4.9 5.6 4.2 4.5 4.3 5.3 6.4 6.8 6.5 6.5 6.7 7.5 7.7 7.4 7.8 6.5 7.7 6.6 6.7 6.9 6.5 6.5 6.5 6.7 7.1 7.3 7.2 6.6 6.5 7.3 7.1 6.1 5.8 6.1 6.0 5.7 5.6 6.1 6.9
5.9 4.9 4.3 4.7 4.5 3.4 4.3 4.9 6.5 5.8 6.0 5.9 6.8 7.5 6.5 7.2 7.3 6.9 6.9 7.3 6.5 6.5 6.6 7.3 6.5 6.5 6.8 7.1 7.1 7.5 7.1 6.4 6.9 3.5 4.1 4.0 4.0 3.8 5.4 5.1 5.3 5.5 5.8 5.5
5.7 5.1 4.7 3.2 4.1 5.2 6.6 6.9 6.8 7.0 6.8 7.2 7.3 7.2 6.6 6.8 6.5 6.5 7.3 6.5 6.5 6.5 6.5 6.5 6.5 6.5 6.5 6.8 7.1 7.2 7.9 7.3 5.6 5.0 4.8 4.3 4.2 3.1 3.9 4.7 4.0 3.3 3.5 3.5
5.5 4.5 3.6 4.0 4.3 5.4 6.6 6.5 6.8 6.5 6.5 7.1 6.8 7.1 7.5 7.5 7.0 6.8 7.0 6.5 6.5 6.5 6.8 6.5 6.5 6.5 5.6 5.5 5.5 4.5 5.3 7.9 6.8 4.8 3.7 2.6 2.6 3.1 2.8 2.9 2.6 2.3 1.6 1.3
5.1 4.6 4.5 5.6 6.4 6.5 6.5 6.5 6.5 6.5 6.8 7.1 7.2 6.6 7.4 6.8 6.3 6.8 6.5 6.5 6.5 6.9 6.5 6.5 6.5 6.5 5.8 5.6 3.2 2.8 2.8 4.2 4.1 2.4 1.7 2.0 2.4 2.1 2.1 2.2 2.3 2.7 2.2 1.9
5.5 5.9 6.5 6.5 6.5 6.5 6.5 6.5 6.5 6.9 7.1 7.2 7.3 7.0 6.8 7.2 6.6 6.6 6.5 6.5 6.5 6.5 6.5 6.5 6.5 6.4 5.6 5.8 4.8 3.1 1.7 1.4 1.2 -1.0 -0.5 0.0 0.6 1.4 1.9 1.8 2.4 2.0 1.9 1.7
6.5 6.2 6.5 6.5 7.0 6.7 6.3 5.2 5.2 4.8 7.3 6.6 6.5 6.3 6.8 6.5 6.5 6.5 6.5 6.5 6.5 6.5 6.5 6.5 6.0 4.4 3.4 3.5 3.4 3.3 2.3 0.7 -0.6 -0.7 -1.8 -1.9 -0.9 0.4 1.5 1.5 1.2 1.5 1.9 1.6
6.2 5.7 6.6 7.0 6.7 6.5 6.6 6.1 6.7 5.4 7.4 7.1 7.1 6.5 6.5 6.5 6.5 6.5 6.5 6.5 6.5 6.5 6.5 3.4 2.9 2.6 2.4 2.5 1.6 1.3 1.9 2.7 1.3 -0.3 -1.2 -1.4 -1.2 -1.0 -0.2 0.2 0.2 0.4 0.9 0.7
6.3 6.5 6.9 6.9 6.4 6.5 7.0 7.5 7.4 7.0 6.6 6.5 6.7 6.5 6.5 6.5 6.5 6.5 6.5 6.5 6.5 5.0 2.0 1.3 2.4 2.3 2.5 3.2 1.1 0.1 -0.2 1.5 1.7 0.5 -0.3 -1.1 -1.1 -1.3 -1.5 -1.6 -1.2 -0.8 -0.3 0.2
Wind_Speed
25 26 26 26 24 15 2 2 1 2 2 2 3 5 4 2 4 3 1 1 3 2 1 2 1 1 0 4 3 1 2 3 4 6 3 2 6 10 9 5 5 7 8 8
24 26 27 27 25 12 2 2 2 1 3 4 4 4 4 1 3 3 3 2 2 1 2 2 2 2 2 4 3 3 2 2 4 2 3 4 6 10 13 11 6 13 9 5
23 25 28 27 26 11 1 2 2 3 3 3 8 7 3 4 2 1 1 0 2 3 3 3 1 2 2 3 3 4 1 3 7 8 11 10 10 8 11 14 10 13 17 21
22 24 26 30 29 12 4 3 3 3 1 2 3 1 3 5 4 2 3 3 6 3 2 2 3 2 3 5 6 4 3 6 8 16 19 18 20 20 19 20 20 17 22 22
21 23 25 29 33 18 2 2 1 2 2 0 2 2 3 4 2 3 3 4 1 3 4 2 3 3 4 4 7 8 5 4 8 10 18 15 17 18 19 20 22 24 25 28
19 22 24 27 32 20 3 1 1 3 3 1 3 1 4 6 4 4 3 3 4 6 7 4 6 8 9 7 8 10 7 4 4 7 9 16 16 14 18 14 13 15 17 21
16 18 20 23 25 18 3 3 3 2 1 3 3 1 2 5 6 5 3 5 5 3 2 7 10 11 14 14 15 12 8 7 6 7 12 5 3 4 3 10 14 14 16 17
13 15 16 18 20 20 4 3 3 2 3 2 5 5 5 4 5 5 7 7 3 3 4 4 5 4 4 6 11 13 13 10 5 4 7 17 19 3 5 6 7 8 12 10
9 11 12 13 15 17 4 3 3 3 4 2 3 2 4 7 6 5 4 1 1 2 3 3 4 4 2 3 4 2 8 12 7 5 5 5 4 8 4 3 6 9 6 4
7 8 10 11 11 12 5 2 4 3 3 2 4 4 3 3 2 4 1 3 3 3 4 5 5 5 1 4 4 6 5 5 13 12 9 10 13 9 6 3 2 4 5 2
7 6 8 9 9 9 6 2 4 2 3 5 5 4 5 3 4 5 4 2 3 3 4 3 4 4 3 3 7 4 10 7 6 7 8 11 11 9 7 3 4 1 4 4
9 6 6 7 7 7 6 1 1 3 4 4 2 9 9 8 6 4 6 2 1 3 4 3 3 4 3 6 5 8 6 10 4 10 7 3 14 10 11 3 4 5 9 10
11 9 6 6 5 3 2 2 2 2 3 5 3 6 6 5 7 4 5 5 4 4 1 2 3 6 5 6 10 14 10 13 6 6 10 17 17 16 14 11 10 9 8 9
11 11 9 7 5 4 4 1 1 1 3 4 3 2 2 1 3 9 8 5 1 0 2 4 5 6 5 6 10 13 11 3 11 17 21 20 21 18 17 15 7 7 8 10
13 12 12 9 6 5 4 5 4 3 2 3 5 3 3 1 3 5 6 7 7 4 3 4 4 4 4 8 9 15 15 16 12 9 10 13 12 1 5 6 8 8 8 8
13 13 13 11 6 2 3 2 2 6 2 2 4 2 2 2 3 4 5 4 5 4 3 3 4 1 3 4 5 9 10 15 19 18 15 9 10 7 7 10 10 8 6 8
13 13 15 13 10 5 3 2 2 8 3 1 4 3 2 3 3 3 2 2 2 2 2 4 4 3 3 4 10 11 7 12 14 15 13 14 11 8 3 6 6 6 8 9
11 11 14 12 9 3 4 4 12 9 1 1 3 4 2 7 3 3 2 3 3 4 3 1 3 2 3 7 24 14 16 11 13 13 12 13 7 2 6 7 7 10 10 8
10 1 14 4 1 2 1 4 7 1 2 3 3 3 3 3 3 2 3 3 3 2 4 4 5 5 9 17 16 15 11 9 7 5 9 8 9 9 7 8 8 9 8 6
13 3 1 2 1 10 9 2 2 3 3 3 4 3 4 4 3 3 3 3 3 3 4 2 4 8 23 22 16 12 10 8 7 3 3 5 5 6 7 7 6 6 5 5
1 2 1 1 6 1 2 3 4 4 4 4 4 6 8 6 4 4 4 2 3 3 4 4 4 5 6 8 11 13 19 15 12 10 3 2 4 4 4 6 5 5 5 6
2 4 3 1 1 2 4 4 3 4 5 4 3 3 5 3 2 4 3 3 1 5 3 3 4 7 7 9 11 5 7 12 12 10 7 6 5 5 6 5 4 4 4 5
2 0 2 3 4 7 7 9 4 4 4 4 4 3 4 2 3 3 3 5 6 1 3 5 7 5 7 6 3 2 1 5 6 7 6 5 6 5 6 6 6 5 6 6
3 4 5 7 7 6 6 6 4 2 2 5 4 3 2 1 4 2 3 2 2 3 5 8 4 5 7 8 4 4 5 6 5 6 5 6 6 6 6 6 4 5 6 6
4 4 7 11 8 1 1 2 2 3 5 6 3 1 2 2 3 3 2 3 5 6 6 3 3 4 6 7 4 6 5 5 6 5 7 7 7 6 6 5 5 5 5 6
5 6 7 4 2 4 4 4 3 5 6 2 0 3 3 6 4 6 9 4 7 5 4 4 4 6 5 6 6 7 6 6 5 5 5 5 7 8 6 4 6 6 7 8
5 7 8 12 8 7 5 6 4 8 6 4 3 5 11 2 3 4 5 7 6 5 4 4 5 8 9 7 5 7 5 7 7 5 6 5 4 3 3 7 6 6 6 6
Wind_Direction
4 6 5 4 3 356 212 277 38 38 282 50 65 68 96 64 141 205 202 332 54 56 145 108 148 161 318 176 199 312 50 303 259 236 116 270 287 248 245 256 217 229 278 277
3 1 2 2 0 6 326 32 360 140 271 91 88 118 103 74 161 185 189 169 259 201 181 207 224 218 126 196 218 349 64 252 294 209 199 204 249 240 241 251 289 258 265 265
3 2 356 357 358 343 255 295 12 48 57 4 113 127 112 127 141 159 246 164 221 203 214 221 286 262 139 177 233 52 331 273 259 275 309 314 268 245 227 238 246 261 246 266
6 2 0 355 356 344 290 8 64 360 124 91 115 181 160 153 184 215 232 204 242 257 254 241 236 234 194 189 161 197 238 260 266 275 277 278 271 265 258 248 242 255 273 279
9 5 3 0 356 347 62 3 317 162 78 79 215 181 165 192 174 233 191 246 178 248 264 319 297 307 231 269 173 207 202 266 288 284 273 268 274 264 254 250 253 256 261 271
13 9 6 7 5 353 56 58 161 295 125 206 270 261 180 192 181 195 242 224 247 241 259 260 277 266 269 261 228 215 213 242 270 267 306 301 280 254 230 230 234 236 248 261
12 14 11 11 13 16 354 18 297 294 108 252 285 271 248 243 245 301 215 225 245 55 2 279 256 256 252 249 239 243 234 234 259 285 298 242 118 182 264 247 258 245 257 268
7 12 15 13 16 10 30 4 320 326 283 295 249 240 248 260 247 261 265 240 313 346 302 283 282 209 238 226 230 239 231 249 268 261 284 284 282 173 180 202 277 225 235 261
358 4 11 14 14 15 351 39 331 313 303 183 240 223 240 260 255 244 228 191 278 270 264 247 259 255 345 199 190 242 220 229 229 248 268 269 71 160 150 165 259 165 201 264
328 350 356 6 12 14 1 32 19 292 282 245 204 217 229 173 252 272 182 177 190 233 234 246 250 250 28 248 235 175 171 206 222 235 257 270 263 152 146 231 90 147 195 228
302 320 338 348 358 12 6 46 6 343 286 274 222 241 210 187 214 254 107 221 186 191 236 247 237 249 202 265 246 204 196 196 196 207 219 253 148 133 212 88 125 136 214 270
288 284 300 321 341 352 5 296 358 320 250 286 264 258 270 278 296 231 186 314 189 238 249 264 303 248 228 266 271 199 243 220 264 206 225 208 187 229 216 326 301 276 282 279
282 270 261 279 306 331 23 325 340 260 279 275 246 238 221 245 233 274 245 214 235 213 36 307 284 262 278 252 241 256 228 251 240 263 249 258 255 244 251 265 273 282 271 281
276 268 255 254 262 276 232 255 133 262 295 283 266 117 233 89 217 233 250 301 124 70 225 242 246 242 230 259 275 277 247 176 235 253 266 274 270 263 269 261 246 246 262 262
285 264 249 240 246 277 257 251 212 240 239 292 291 303 85 83 228 208 213 235 241 247 228 216 238 256 279 252 265 259 226 233 225 242 246 250 281 249 166 203 227 253 268 272
295 273 240 221 213 220 295 276 184 189 186 284 297 91 157 112 131 180 183 199 220 226 240 260 245 51 259 266 254 249 231 225 231 242 248 284 277 320 245 254 267 261 255 275
299 293 233 208 188 172 216 316 37 162 139 240 293 267 147 150 142 147 147 169 207 253 237 233 250 192 224 258 255 237 263 240 243 244 258 267 253 254 274 251 243 267 276 276
297 308 236 178 179 229 271 200 163 162 145 202 256 266 255 178 171 172 162 170 192 209 252 176 209 154 234 254 244 258 253 278 257 236 235 247 298 316 255 247 269 274 268 252
314 9 126 106 133 220 304 110 157 156 214 231 203 248 277 161 127 117 170 200 215 177 240 228 201 207 228 236 248 250 249 227 245 231 232 242 246 262 265 267 261 254 259 230
132 84 157 218 214 119 128 190 191 180 219 231 234 232 248 176 175 188 184 200 232 226 214 158 234 254 260 255 250 250 240 229 201 160 224 213 241 240 248 239 238 237 240 209
87 198 187 328 142 273 239 238 214 186 236 213 234 238 219 186 176 205 225 216 220 241 164 204 243 262 253 276 256 256 244 216 206 220 191 208 225 225 251 235 224 220 216 205
92 114 100 89 222 230 224 201 180 222 243 198 236 203 210 160 225 210 183 227 225 266 137 228 248 255 262 274 269 274 258 218 199 207 226 226 228 235 243 247 244 227 193 166
82 183 173 181 183 236 221 193 178 215 201 181 179 176 171 177 228 214 185 218 226 104 229 252 241 292 287 292 274 224 174 166 179 188 199 209 215 204 216 231 231 230 205 190
211 186 225 217 210 234 204 202 189 145 128 148 170 138 210 141 183 206 237 217 226 240 231 233 268 299 310 304 220 201 203 200 193 196 194 203 205 215 216 222 216 193 199 185
221 204 222 222 237 252 174 87 164 170 155 143 126 109 231 161 233 204 201 218 239 230 236 249 271 311 309 295 238 227 227 204 211 196 196 207 208 213 229 217 204 198 187 181
201 231 242 235 236 227 186 187 212 166 161 114 99 166 219 221 212 182 210 209 229 236 219 235 291 288 273 278 240 225 230 232 226 212 213 207 207 202 204 176 200 196 189 191
228 222 224 247 269 244 211 192 207 156 146 199 193 205 217 122 233 239 210 219 237 240 248 255 234 261 282 277 256 237 207 232 226 210 205 211 188 161 194 212 204 195 191 206